Location: Eberbach
(49.4690°N, 8.9930°E)
Time: 19:10:32
(UTC+02:00)

ISS - Pass Details

Date: 04 October 2021
Orbit: 417 x 423 km, 51.6° (Epoch: 20 October)

Event Time Altitude Azimuth Distance (km) Brightness Sun altitude
Rises 19:32:09 0° 289° (WNW) 2,365 1.7 -6.7°
Reaches altitude 10° 19:34:17 10° 283° (WNW) 1,499 0.7 -7.0°
Maximum altitude 19:37:32 47° 209° (SSW) 563 -2.9 -7.6°
Drops below altitude 10° 19:40:46 10° 134° (SE) 1,495 -1.4 -8.1°
Enters shadow 19:41:35 - 131° (SE) 1,817 -1.0 -8.2°
